Location: Newark
(46.7636°N, 1.8358°W)
Time: 03:55:59
(UTC+00:00)

Vanguard 2 Rocket - Pass Details

Date: 17 October 2019
Orbit: 554 x 3326 km, 32.9° (Epoch: 16 November)

Event Time Altitude Azimuth Distance (km) Brightness Sun altitude
Rises 08:45:48 0° 212° (SSW) 6,619 11.4 20.3°
Reaches altitude 10° 08:50:36 10° 204° (SSW) 5,882 11.3 20.9°
Maximum altitude 09:06:29 34° 149° (SSE) 4,590 12.4 22.9°
Drops below altitude 10° 09:22:11 10° 94° (E) 5,857 11.8 24.8°
Sets 09:26:53 0° 86° (E) 6,594 11.8 25.3°
